Wind_Speed
11 12 13 13 13 13 12 12 13 15 17 19 21 24 27 31 34 37 41 45 49 54 58 63 68 73 77 78 80 82 84 86 86 83 78 74 72 72 72 70 67 63 59 57
11 12 12 13 13 14 13 13 14 16 17 20 21 23 27 31 34 38 43 48 52 57 61 67 72 76 78 79 81 83 85 86 83 79 75 73 73 72 69 65 60 57 54 52
12 13 13 13 13 13 13 14 14 16 18 21 22 22 27 31 36 41 46 51 55 60 65 70 74 76 78 79 81 83 85 83 79 76 74 73 71 68 63 57 53 51 50 50
12 13 13 13 13 14 14 15 16 17 20 23 25 25 29 34 40 45 49 53 57 62 67 72 75 76 78 80 81 84 83 79 76 75 74 73 69 64 58 52 49 50 51 51
13 13 13 14 14 15 15 16 17 19 21 23 25 29 33 37 42 47 51 56 60 64 69 72 74 76 78 80 82 83 80 76 75 75 74 72 67 61 53 50 50 51 53 54
13 14 14 14 15 16 18 18 19 20 22 25 28 32 36 40 45 49 53 57 61 66 69 71 73 75 77 80 81 81 77 74 74 75 73 70 64 57 51 51 53 54 56 56
14 14 15 16 17 18 20 21 23 25 26 29 31 34 38 42 46 51 55 59 62 66 69 71 73 75 77 80 80 78 75 73 74 74 71 68 62 55 53 54 56 58 59 58
15 16 17 17 18 20 22 24 27 29 31 30 32 36 40 44 48 52 56 59 62 66 69 72 74 75 78 79 79 76 73 72 73 73 69 65 60 56 56 59 61 63 63 62
16 17 18 19 21 23 25 26 28 31 33 35 37 40 43 46 49 52 56 59 63 67 70 72 74 76 78 79 77 74 72 72 73 71 68 64 59 58 59 62 65 67 67 67
18 18 19 21 23 25 27 29 31 33 37 40 41 42 44 47 49 53 56 60 64 68 70 72 74 76 77 77 76 72 71 72 72 70 68 64 60 60 62 65 68 70 71 71
19 20 21 22 24 27 29 30 32 34 37 41 44 43 45 46 49 53 57 61 65 68 70 72 74 75 77 76 73 70 70 71 71 69 67 63 61 62 65 68 71 73 74 72
20 21 22 23 25 28 29 31 33 36 38 40 43 44 45 46 49 53 57 61 65 68 71 72 74 75 75 73 71 69 70 71 69 68 66 64 63 64 66 69 73 75 74 70
21 23 24 25 26 28 30 32 34 36 38 39 41 42 44 46 49 53 58 62 66 69 71 72 73 74 73 71 69 69 69 69 68 67 66 64 63 65 67 70 74 75 73 64
22 25 28 30 31 32 33 34 35 37 38 38 39 41 43 46 49 53 58 62 66 69 70 71 72 72 72 70 68 68 68 68 67 66 65 64 64 66 68 72 75 75 71 59
21 25 28 31 33 34 36 37 38 38 39 39 39 40 43 46 49 53 58 62 66 69 70 70 70 71 71 69 67 67 67 67 66 66 65 64 65 67 69 72 75 75 69 56
20 23 26 29 32 35 37 40 41 41 42 42 42 42 44 46 49 53 58 62 66 68 68 69 70 70 69 67 66 65 66 66 65 65 64 64 65 67 69 71 74 74 68 56
18 21 25 28 31 35 39 43 44 44 45 45 45 45 46 47 50 54 58 62 65 67 68 68 69 69 68 66 64 64 64 64 63 63 63 64 65 66 68 71 73 74 69 58
18 22 25 29 33 37 41 44 47 47 47 48 47 48 48 49 51 54 58 61 65 67 67 67 68 68 67 65 63 63 63 63 62 62 62 63 64 65 67 69 71 73 71 62
18 22 26 31 34 37 41 46 49 50 50 53 53 52 51 51 52 54 57 61 64 66 66 66 67 67 66 64 62 61 61 61 60 60 61 62 63 64 65 67 69 71 71 67
18 22 26 30 35 39 42 46 49 52 54 57 57 55 53 52 51 53 57 60 64 65 65 65 66 66 65 63 60 59 59 59 59 59 59 60 61 63 64 66 68 70 70 69
18 21 25 29 33 37 42 46 49 52 55 58 59 58 55 52 52 53 56 60 63 65 65 65 65 64 63 61 59 58 58 58 57 58 58 58 59 61 63 65 67 69 69 68
21 24 27 32 36 39 43 46 49 51 55 57 59 60 57 54 53 54 56 59 63 64 64 64 64 63 62 60 58 56 56 56 56 56 56 56 57 59 61 63 64 66 67 67
23 25 28 31 34 38 42 45 48 51 54 57 59 61 59 56 54 54 56 59 62 64 64 63 63 62 61 59 57 55 54 54 54 54 54 54 55 56 58 60 61 63 63 64
26 27 29 32 35 38 42 45 48 51 54 57 59 62 61 58 55 54 56 59 61 63 63 62 61 61 60 58 56 54 53 53 53 52 51 51 52 54 56 58 59 60 61 62
29 30 31 33 36 38 42 45 48 51 54 57 60 62 62 59 56 55 55 58 61 62 62 61 60 59 58 57 55 53 51 51 51 51 50 49 50 51 53 55 57 58 59 60
31 33 35 36 39 42 44 46 49 51 54 57 60 63 63 60 57 55 55 57 60 61 62 61 59 58 57 56 54 52 50 49 49 49 49 48 48 49 51 53 56 57 58 58
Wind_Direction
333 330 326 323 320 317 315 314 319 326 329 329 331 331 327 328 328 329 329 329 329 330 331 331 331 331 331 329 327 325 323 322 321 321 321 320 318 317 316 315 314 312 310 307
334 330 327 325 323 324 327 332 333 331 328 328 333 332 326 327 330 332 333 334 334 333 334 333 333 333 332 330 327 325 324 324 324 323 323 322 321 321 320 319 318 316 315 313
337 334 331 330 331 333 336 336 333 331 330 331 334 332 328 332 335 337 337 337 336 335 335 335 335 334 332 329 327 326 326 326 326 325 325 324 324 323 322 322 320 319 318 316
338 337 337 338 338 338 337 335 333 334 336 335 334 336 336 339 340 339 339 338 337 337 337 337 335 333 331 330 328 328 328 328 328 327 326 326 326 325 325 324 323 322 320 318
344 343 343 343 341 339 337 337 337 338 338 334 335 339 340 340 340 340 339 339 338 338 338 337 335 333 332 331 330 330 330 330 329 329 328 329 328 328 327 326 324 322 320 317
348 348 347 345 344 341 340 341 339 338 338 338 342 340 339 340 340 340 340 340 339 339 339 337 336 334 333 332 332 332 331 331 331 330 330 331 330 329 327 326 324 322 319 315
356 354 351 348 346 345 343 341 339 338 343 343 341 340 339 339 341 342 341 340 340 340 339 338 336 335 334 334 333 333 332 333 332 332 333 332 331 329 328 326 325 323 320 316
1 358 355 352 349 346 345 343 341 339 339 340 340 342 339 340 342 342 341 341 341 341 340 339 337 336 336 335 335 334 334 334 334 334 335 334 332 330 329 328 327 325 322 318
9 4 359 354 350 347 344 343 341 337 335 338 343 342 339 342 342 341 341 341 342 343 342 340 339 338 337 336 336 336 336 336 337 337 337 336 334 332 331 330 329 328 324 320
14 7 2 355 350 346 343 341 340 339 338 338 340 342 341 342 341 340 341 343 344 344 342 341 340 339 338 338 338 337 338 338 339 339 339 338 337 335 335 334 333 331 328 324
20 9 2 356 351 345 342 341 339 339 338 336 337 342 340 340 341 340 343 345 345 344 343 342 341 340 339 339 339 339 340 340 341 341 341 341 340 339 339 338 337 335 332 329
27 16 7 1 356 350 346 343 341 339 338 336 336 339 339 340 340 342 344 345 346 345 344 343 342 341 340 340 341 341 341 342 342 343 344 344 343 343 343 342 342 341 339 337
28 23 17 11 4 359 356 352 347 344 341 338 337 339 339 340 342 344 345 346 347 346 345 344 343 342 341 342 342 342 343 344 345 346 347 347 347 346 347 347 348 347 347 346
25 22 19 15 11 9 5 0 354 350 346 344 341 340 340 342 344 345 346 347 348 347 346 345 343 342 343 343 344 344 345 346 347 348 350 350 350 351 352 353 354 354 354 356
23 21 19 16 14 11 9 6 0 355 351 348 346 344 343 344 345 346 347 348 348 348 347 345 344 344 344 345 346 346 347 348 349 351 353 353 354 355 357 358 359 360 0 2
17 18 16 15 12 11 10 9 6 0 356 353 350 348 347 346 346 348 348 349 349 348 347 345 345 345 346 347 347 347 349 350 352 354 355 357 357 359 1 2 4 5 6 7
9 10 11 11 9 7 9 8 8 4 359 356 353 351 349 348 348 349 349 349 349 349 348 346 345 346 347 348 349 349 351 353 355 357 358 359 0 2 4 6 8 10 11 11
0 2 3 5 5 6 5 5 6 5 1 359 355 353 351 349 349 349 349 349 350 349 348 347 347 348 349 349 350 351 352 355 357 359 1 2 3 4 7 9 11 13 15 15
354 356 357 359 1 1 2 3 2 2 2 360 357 354 352 350 349 349 349 349 350 350 349 348 348 348 350 351 352 353 354 356 359 0 3 5 5 7 9 11 13 16 18 19
349 352 352 353 355 357 358 359 359 358 360 358 357 354 352 349 348 348 348 350 350 350 350 349 349 349 351 352 353 354 355 357 360 2 5 7 7 9 11 13 15 17 19 21
339 346 347 348 351 353 354 355 355 356 356 356 355 353 351 349 348 348 348 350 350 351 350 350 350 350 352 353 354 355 356 358 1 3 6 9 9 10 12 14 16 18 20 22
330 338 343 344 347 350 350 351 352 352 353 353 353 352 350 349 348 348 348 350 351 351 351 351 351 351 352 354 355 355 357 359 1 4 7 10 11 12 13 15 16 18 20 22
321 331 336 339 342 344 346 347 348 349 350 351 351 351 350 348 348 348 348 350 351 351 352 351 351 352 353 354 355 356 358 360 2 5 7 9 12 13 14 15 17 18 20 22
312 322 328 333 337 341 342 344 345 346 348 349 349 350 350 348 348 348 348 349 351 352 352 352 352 352 354 355 356 357 358 0 3 5 7 9 11 12 14 15 16 18 19 21
306 316 322 328 332 336 338 340 342 344 345 347 348 348 349 348 347 347 348 349 350 352 352 352 352 353 354 355 356 357 358 360 3 6 8 9 10 11 12 14 16 17 18 20
301 311 318 324 328 332 335 337 340 341 343 345 346 347 347 347 347 346 347 349 350 352 352 352 352 353 354 355 357 357 358 360 2 5 8 9 10 11 12 13 14 15 17 19
Height
5894 5893 5890 5888 5886 5885 5882 5880 5877 5873 5870 5867 5864 5859 5854 5849 5844 5838 5831 5823 5814 5803 5792 5780 5768 5753 5738 5722 5707 5692 5677 5661 5644 5628 5613 5599 5584 5569 5554 5539 5525 5514 5504 5495
5894 5892 5889 5886 5883 5881 5878 5876 5873 5870 5867 5864 5861 5856 5850 5845 5839 5833 5824 5815 5804 5793 5781 5769 5755 5740 5725 5710 5694 5678 5662 5645 5628 5612 5597 5582 5568 5553 5538 5524 5511 5500 5491 5482
5892 5890 5887 5884 5881 5878 5876 5874 5871 5869 5865 5860 5857 5854 5847 5841 5834 5826 5816 5805 5795 5783 5771 5758 5743 5728 5713 5698 5681 5664 5647 5630 5613 5598 5584 5569 5555 5540 5526 5514 5502 5491 5481 5472
5891 5888 5885 5882 5879 5876 5874 5872 5869 5865 5862 5857 5853 5849 5842 5835 5827 5818 5808 5798 5786 5774 5762 5747 5733 5718 5702 5685 5668 5650 5632 5615 5600 5585 5570 5555 5541 5528 5515 5503 5492 5481 5470 5461
5889 5886 5883 5880 5878 5875 5872 5869 5866 5862 5858 5854 5849 5843 5837 5829 5821 5812 5801 5790 5778 5766 5753 5738 5724 5708 5691 5673 5655 5637 5619 5603 5588 5572 5557 5542 5527 5514 5503 5492 5482 5471 5460 5449
5887 5884 5882 5879 5876 5873 5869 5866 5863 5859 5855 5850 5844 5837 5831 5823 5815 5805 5794 5782 5771 5758 5744 5730 5714 5697 5680 5662 5644 5626 5609 5593 5577 5561 5545 5530 5516 5504 5493 5483 5472 5461 5449 5437
5886 5883 5880 5877 5873 5870 5867 5864 5860 5854 5850 5845 5839 5832 5826 5818 5808 5798 5787 5776 5763 5750 5736 5721 5705 5688 5670 5652 5634 5617 5600 5584 5568 5551 5535 5519 5505 5493 5482 5471 5460 5448 5435 5423
5884 5882 5879 5875 5872 5869 5864 5860 5856 5850 5845 5841 5835 5827 5820 5811 5801 5791 5780 5769 5757 5743 5728 5712 5696 5679 5660 5643 5625 5608 5591 5575 5559 5542 5525 5510 5496 5483 5471 5458 5445 5432 5418 5405
5884 5881 5878 5874 5870 5867 5862 5857 5853 5847 5840 5834 5828 5822 5812 5803 5795 5785 5774 5763 5750 5735 5719 5703 5687 5669 5651 5634 5616 5599 5583 5567 5550 5533 5517 5502 5487 5474 5461 5447 5431 5415 5399 5384
5883 5880 5877 5873 5869 5864 5860 5854 5849 5842 5834 5827 5822 5816 5807 5798 5789 5779 5768 5756 5741 5727 5711 5695 5678 5660 5642 5625 5608 5591 5574 5558 5541 5525 5509 5493 5479 5465 5451 5435 5418 5401 5382 5363
5882 5880 5876 5871 5867 5862 5857 5852 5845 5839 5832 5823 5815 5813 5803 5793 5784 5773 5761 5748 5734 5720 5703 5687 5670 5652 5635 5617 5600 5584 5568 5552 5536 5519 5503 5487 5472 5457 5441 5424 5406 5386 5365 5342
5883 5879 5875 5871 5865 5860 5854 5848 5842 5836 5829 5820 5811 5808 5797 5788 5778 5767 5754 5741 5727 5712 5696 5679 5663 5645 5628 5611 5595 5579 5563 5547 5530 5514 5497 5481 5466 5450 5434 5416 5396 5374 5350 5325
5882 5879 5875 5870 5866 5859 5852 5846 5838 5831 5824 5816 5808 5803 5791 5782 5772 5760 5748 5735 5721 5705 5689 5672 5656 5640 5623 5606 5590 5574 5558 5542 5526 5509 5493 5476 5461 5445 5428 5409 5387 5364 5339 5315
5881 5877 5873 5868 5862 5855 5849 5843 5835 5827 5820 5812 5804 5796 5786 5776 5765 5754 5742 5728 5714 5698 5682 5666 5651 5635 5618 5601 5585 5569 5554 5538 5522 5505 5489 5473 5457 5440 5422 5403 5381 5357 5333 5312
5880 5876 5870 5865 5859 5853 5848 5841 5833 5824 5816 5808 5800 5791 5781 5770 5759 5748 5735 5722 5708 5693 5677 5662 5646 5631 5614 5597 5581 5566 5551 5535 5519 5502 5486 5470 5454 5437 5419 5400 5378 5355 5332 5312
5878 5875 5870 5865 5859 5853 5846 5839 5830 5821 5812 5804 5795 5786 5776 5765 5754 5742 5730 5716 5702 5688 5673 5658 5642 5626 5610 5594 5579 5563 5548 5533 5517 5500 5484 5468 5452 5436 5418 5399 5378 5356 5335 5317
5876 5873 5868 5864 5857 5851 5843 5836 5827 5818 5808 5800 5790 5781 5770 5760 5748 5737 5724 5711 5698 5683 5669 5654 5638 5623 5607 5591 5576 5561 5546 5531 5515 5500 5484 5468 5452 5436 5419 5400 5381 5361 5341 5323
5874 5869 5865 5860 5854 5846 5842 5832 5823 5815 5806 5796 5786 5775 5765 5754 5743 5731 5720 5707 5694 5679 5665 5650 5634 5619 5603 5588 5573 5558 5544 5530 5515 5500 5485 5469 5454 5438 5422 5404 5386 5367 5348 5330
5870 5865 5860 5855 5849 5844 5836 5827 5819 5811 5803 5792 5781 5771 5760 5749 5738 5727 5715 5703 5690 5676 5661 5646 5631 5616 5601 5586 5571 5557 5543 5529 5515 5502 5487 5472 5457 5442 5426 5410 5392 5374 5356 5339
5867 5862 5857 5851 5844 5838 5833 5824 5815 5807 5798 5788 5777 5767 5756 5745 5735 5724 5712 5699 5686 5672 5658 5643 5628 5613 5599 5584 5570 5557 5543 5530 5517 5503 5489 5474 5459 5445 5430 5414 5398 5381 5365 5348
5863 5859 5855 5848 5842 5836 5829 5820 5811 5803 5796 5784 5773 5763 5752 5742 5731 5720 5707 5695 5682 5669 5654 5640 5626 5611 5597 5583 5569 5556 5543 5530 5517 5503 5490 5477 5463 5449 5434 5419 5404 5389 5373 5357
5858 5854 5849 5843 5836 5832 5823 5816 5809 5801 5791 5780 5770 5759 5748 5737 5726 5715 5703 5691 5679 5665 5652 5638 5624 5610 5595 5581 5568 5556 5543 5530 5517 5504 5492 5480 5467 5454 5440 5426 5412 5398 5384 5369
5853 5850 5845 5840 5836 5828 5820 5813 5806 5797 5788 5777 5767 5756 5744 5733 5722 5711 5700 5688 5676 5662 5649 5635 5621 5608 5594 5581 5568 5556 5544 5531 5519 5506 5494 5483 5471 5460 5447 5434 5421 5408 5394 5381
5847 5844 5840 5835 5830 5824 5816 5809 5802 5793 5784 5774 5763 5752 5741 5729 5718 5708 5696 5685 5673 5660 5646 5633 5619 5606 5593 5580 5568 5556 5544 5532 5520 5509 5497 5486 5475 5464 5453 5441 5428 5415 5403 5390
5840 5838 5834 5830 5825 5820 5813 5805 5798 5789 5780 5770 5760 5749 5737 5726 5715 5704 5693 5682 5670 5657 5644 5630 5617 5605 5592 5580 5568 5556 5545 5534 5522 5511 5500 5489 5478 5467 5456 5445 5434 5421 5409 5396
5833 5831 5827 5823 5818 5813 5807 5800 5793 5785 5776 5766 5756 5745 5733 5722 5711 5700 5689 5678 5667 5654 5641 5629 5616 5604 5591 5579 5568 5556 5546 5535 5524 5514 5503 5493 5482 5472 5460 5449 5437 5426 5415 5403